����������;��������(kWh)
2017-07-10 00:00;90,55
2017-07-10 00:15;87,65
2017-07-10 00:30;90,05
2017-07-10 00:45;87,65
2017-07-10 01:00;98,6
2017-07-10 01:15;99,3
2017-07-10 01:30;99,3
2017-07-10 01:45;93,9
2017-07-10 02:00;94,05
2017-07-10 02:15;93,25
2017-07-10 02:30;93,55
2017-07-10 02:45;94,15
2017-07-10 03:00;94,65
2017-07-10 03:15;93,8
2017-07-10 03:30;93,65
2017-07-10 03:45;92,55
2017-07-10 04:00;95,3
2017-07-10 04:15;90
2017-07-10 04:30;88,35
2017-07-10 04:45;90,2
2017-07-10 05:00;89,05
2017-07-10 05:15;90,15
2017-07-10 05:30;88,5
2017-07-10 05:45;88,25
2017-07-10 06:00;89,95
2017-07-10 06:15;84,7
2017-07-10 06:30;89,3
2017-07-10 06:45;85,4
2017-07-10 07:00;88,45
2017-07-10 07:15;93,35
2017-07-10 07:30;156
2017-07-10 07:45;152,85
2017-07-10 08:00;129,05
2017-07-10 08:15;135,9
2017-07-10 08:30;136,4
2017-07-10 08:45;147,2
2017-07-10 09:00;165,55
2017-07-10 09:15;175,45
2017-07-10 09:30;188,8
2017-07-10 09:45;207,15
2017-07-10 10:00;211,35
2017-07-10 10:15;220,3
2017-07-10 10:30;228,2
2017-07-10 10:45;232,95
2017-07-10 11:00;236,15
2017-07-10 11:15;262,65
2017-07-10 11:30;304,15
2017-07-10 11:45;294,5
2017-07-10 12:00;262,55
2017-07-10 12:15;277,9
2017-07-10 12:30;271,35
2017-07-10 12:45;276,9
2017-07-10 13:00;282,2
2017-07-10 13:15;269,6
2017-07-10 13:30;264,25
2017-07-10 13:45;260,45
2017-07-10 14:00;258,7
2017-07-10 14:15;257,95
2017-07-10 14:30;248,9
2017-07-10 14:45;240,05
2017-07-10 15:00;228,3
2017-07-10 15:15;219,25
2017-07-10 15:30;207,9
2017-07-10 15:45;200,7
2017-07-10 16:00;195,3
2017-07-10 16:15;183,05
2017-07-10 16:30;182,8
2017-07-10 16:45;173,3
2017-07-10 17:00;168,35
2017-07-10 17:15;162,45
2017-07-10 17:30;164,15
2017-07-10 17:45;162,8
2017-07-10 18:00;159,15
2017-07-10 18:15;158,65
2017-07-10 18:30;155,8
2017-07-10 18:45;150,9
2017-07-10 19:00;144,85
2017-07-10 19:15;132,95
2017-07-10 19:30;131,95
2017-07-10 19:45;125,9
2017-07-10 20:00;129,1
2017-07-10 20:15;130,45
2017-07-10 20:30;131,3
2017-07-10 20:45;126,3
2017-07-10 21:00;131,05
2017-07-10 21:15;126,7
2017-07-10 21:30;123,5
2017-07-10 21:45;122,2
2017-07-10 22:00;122,85
2017-07-10 22:15;120,1
2017-07-10 22:30;117,6
2017-07-10 22:45;116,85
2017-07-10 23:00;117,85
2017-07-10 23:15;115
2017-07-10 23:30;111,25
2017-07-10 23:45;111,85
2017-07-11 00:00;109,5
2017-07-11 00:15;108,7
2017-07-11 00:30;108,8
2017-07-11 00:45;108,4
2017-07-11 01:00;107,8
2017-07-11 01:15;107,45
2017-07-11 01:30;106,25
2017-07-11 01:45;104,5
2017-07-11 02:00;106,7
2017-07-11 02:15;109,5
2017-07-11 02:30;109,35
2017-07-11 02:45;106,85
2017-07-11 03:00;103,7
2017-07-11 03:15;100,35
2017-07-11 03:30;97,25
2017-07-11 03:45;100,3
2017-07-11 04:00;98,15
2017-07-11 04:15;93,6
2017-07-11 04:30;95,25
2017-07-11 04:45;94,65
2017-07-11 05:00;96,4
2017-07-11 05:15;92,25
2017-07-11 05:30;95,2
2017-07-11 05:45;93,4
2017-07-11 06:00;93,85
2017-07-11 06:15;90,05
2017-07-11 06:30;89
2017-07-11 06:45;94,05
2017-07-11 07:00;95,5
2017-07-11 07:15;108,2
2017-07-11 07:30;164,4
2017-07-11 07:45;142
2017-07-11 08:00;130,5
2017-07-11 08:15;139,45
2017-07-11 08:30;144,3
2017-07-11 08:45;144,05
2017-07-11 09:00;159,85
2017-07-11 09:15;184,75
2017-07-11 09:30;199,25
2017-07-11 09:45;208,85
2017-07-11 10:00;205,1
2017-07-11 10:15;219,25
2017-07-11 10:30;227,35
2017-07-11 10:45;280,05
2017-07-11 11:00;287
2017-07-11 11:15;256,2
2017-07-11 11:30;251,5
2017-07-11 11:45;260,25
2017-07-11 12:00;260,6
2017-07-11 12:15;261,1
2017-07-11 12:30;258,05
2017-07-11 12:45;252,95
2017-07-11 13:00;254,35
2017-07-11 13:15;260,95
2017-07-11 13:30;262,15
2017-07-11 13:45;261,1
2017-07-11 14:00;262,9
2017-07-11 14:15;256,85
2017-07-11 14:30;247,6
2017-07-11 14:45;236,2
2017-07-11 15:00;226,6
2017-07-11 15:15;211,85
2017-07-11 15:30;219,35
2017-07-11 15:45;202,75
2017-07-11 16:00;197,9
2017-07-11 16:15;188,5
2017-07-11 16:30;183,35
2017-07-11 16:45;172,65
2017-07-11 17:00;155,55
2017-07-11 17:15;152,1
2017-07-11 17:30;145,2
2017-07-11 17:45;146,55
2017-07-11 18:00;138,6
2017-07-11 18:15;136,85
2017-07-11 18:30;130,5
2017-07-11 18:45;130,8
2017-07-11 19:00;122
2017-07-11 19:15;122,65
2017-07-11 19:30;117,55
2017-07-11 19:45;119,2
2017-07-11 20:00;115,45
2017-07-11 20:15;117,95
2017-07-11 20:30;113,4
2017-07-11 20:45;113,65
2017-07-11 21:00;118,4
2017-07-11 21:15;114,8
2017-07-11 21:30;115,45
2017-07-11 21:45;110,95
2017-07-11 22:00;109,7
2017-07-11 22:15;111,7
2017-07-11 22:30;110,15
2017-07-11 22:45;111,8
2017-07-11 23:00;109,4
2017-07-11 23:15;109
2017-07-11 23:30;103,9
2017-07-11 23:45;105,3
2017-07-12 00:00;93,55
2017-07-12 00:15;93,1
2017-07-12 00:30;95,8
2017-07-12 00:45;92,25
2017-07-12 01:00;94,65
2017-07-12 01:15;91,4
2017-07-12 01:30;93,75
2017-07-12 01:45;90,35
2017-07-12 02:00;95,05
2017-07-12 02:15;95,2
2017-07-12 02:30;96,1
2017-07-12 02:45;95,1
2017-07-12 03:00;97,6
2017-07-12 03:15;94
2017-07-12 03:30;96,5
2017-07-12 03:45;93,05
2017-07-12 04:00;91,75
2017-07-12 04:15;90,6
2017-07-12 04:30;92,05
2017-07-12 04:45;91,45
2017-07-12 05:00;92,7
2017-07-12 05:15;89,7
2017-07-12 05:30;90,55
2017-07-12 05:45;89,95
2017-07-12 06:00;89,7
2017-07-12 06:15;86,15
2017-07-12 06:30;85,95
2017-07-12 06:45;98,65
2017-07-12 07:00;101,95
2017-07-12 07:15;104,85
2017-07-12 07:30;165,65
2017-07-12 07:45;157,25
2017-07-12 08:00;139,55
2017-07-12 08:15;184,05
2017-07-12 08:30;198,35
2017-07-12 08:45;168,1
2017-07-12 09:00;197,6
2017-07-12 09:15;207,5
2017-07-12 09:30;222,25
2017-07-12 09:45;227,15
2017-07-12 10:00;231
2017-07-12 10:15;240,05
2017-07-12 10:30;237,55
2017-07-12 10:45;245
2017-07-12 11:00;255,7
2017-07-12 11:15;261,4
2017-07-12 11:30;268,8
2017-07-12 11:45;282,2
2017-07-12 12:00;276
2017-07-12 12:15;278,8
2017-07-12 12:30;271,5
2017-07-12 12:45;280,25
2017-07-12 13:00;279,95
2017-07-12 13:15;282,4
2017-07-12 13:30;277,2
2017-07-12 13:45;304,3
2017-07-12 14:00;287,75
2017-07-12 14:15;287,35
2017-07-12 14:30;276,25
2017-07-12 14:45;260,25
2017-07-12 15:00;255
2017-07-12 15:15;238,9
2017-07-12 15:30;235,6
2017-07-12 15:45;222,85
2017-07-12 16:00;213,85
2017-07-12 16:15;209
2017-07-12 16:30;198,7
2017-07-12 16:45;189,7
2017-07-12 17:00;178,8
2017-07-12 17:15;175,3
2017-07-12 17:30;168,3
2017-07-12 17:45;167,5
2017-07-12 18:00;165
2017-07-12 18:15;164,4
2017-07-12 18:30;163,1
2017-07-12 18:45;158,65
2017-07-12 19:00;153,2
2017-07-12 19:15;147,6
2017-07-12 19:30;145,65
2017-07-12 19:45;145,7
2017-07-12 20:00;140,05
2017-07-12 20:15;135,05
2017-07-12 20:30;133,2
2017-07-12 20:45;133,55
2017-07-12 21:00;135,1
2017-07-12 21:15;122,75
2017-07-12 21:30;121,2
2017-07-12 21:45;118,7
2017-07-12 22:00;117,5
2017-07-12 22:15;116,5
2017-07-12 22:30;115,3
2017-07-12 22:45;113,8
2017-07-12 23:00;113,35
2017-07-12 23:15;108,15
2017-07-12 23:30;108,35
2017-07-12 23:45;108,15
2017-07-13 00:00;107
2017-07-13 00:15;107,8
2017-07-13 00:30;106,55
2017-07-13 00:45;104,65
2017-07-13 01:00;104,25
2017-07-13 01:15;103,7
2017-07-13 01:30;102,45
2017-07-13 01:45;101,15
2017-07-13 02:00;101,25
2017-07-13 02:15;100,4
2017-07-13 02:30;101,9
2017-07-13 02:45;101
2017-07-13 03:00;102,85
2017-07-13 03:15;104,25
2017-07-13 03:30;103,4
2017-07-13 03:45;103,05
2017-07-13 04:00;103,25
2017-07-13 04:15;104,95
2017-07-13 04:30;103,45
2017-07-13 04:45;103,8
2017-07-13 05:00;100,1
2017-07-13 05:15;99,85
2017-07-13 05:30;99,05
2017-07-13 05:45;98,75
2017-07-13 06:00;100,95
2017-07-13 06:15;99,3
2017-07-13 06:30;100,3
2017-07-13 06:45;108,8
2017-07-13 07:00;114,35
2017-07-13 07:15;115,2
2017-07-13 07:30;165,35
2017-07-13 07:45;148,2
2017-07-13 08:00;145,05
2017-07-13 08:15;154,4
2017-07-13 08:30;165,95
2017-07-13 08:45;171,5
2017-07-13 09:00;188,35
2017-07-13 09:15;203,45
2017-07-13 09:30;213,7
2017-07-13 09:45;218,1
2017-07-13 10:00;219,1
2017-07-13 10:15;225,5
2017-07-13 10:30;232,35
2017-07-13 10:45;284,15
2017-07-13 11:00;273,45
2017-07-13 11:15;269,3
2017-07-13 11:30;272,4
2017-07-13 11:45;272,35
2017-07-13 12:00;279,75
2017-07-13 12:15;275,55
2017-07-13 12:30;284,25
2017-07-13 12:45;277,5
2017-07-13 13:00;275,5
2017-07-13 13:15;270,45
2017-07-13 13:30;273,8
2017-07-13 13:45;306,75
2017-07-13 14:00;343,85
2017-07-13 14:15;309,3
2017-07-13 14:30;275,85
2017-07-13 14:45;263,25
2017-07-13 15:00;245,8
2017-07-13 15:15;232,4
2017-07-13 15:30;231,85
2017-07-13 15:45;218,2
2017-07-13 16:00;208,05
2017-07-13 16:15;196,35
2017-07-13 16:30;185,75
2017-07-13 16:45;176,9
2017-07-13 17:00;165,05
2017-07-13 17:15;165,45
2017-07-13 17:30;163,8
2017-07-13 17:45;161
2017-07-13 18:00;156,05
2017-07-13 18:15;155,45
2017-07-13 18:30;152,7
2017-07-13 18:45;152,25
2017-07-13 19:00;141,35
2017-07-13 19:15;134,85
2017-07-13 19:30;134,2
2017-07-13 19:45;135,4
2017-07-13 20:00;134,85
2017-07-13 20:15;130,55
2017-07-13 20:30;125,95
2017-07-13 20:45;128,95
2017-07-13 21:00;128,75
2017-07-13 21:15;129,2
2017-07-13 21:30;126,6
2017-07-13 21:45;125,75
2017-07-13 22:00;125,15
2017-07-13 22:15;123,4
2017-07-13 22:30;121,35
2017-07-13 22:45;122,55
2017-07-13 23:00;121,5
2017-07-13 23:15;118,25
2017-07-13 23:30;115,9
2017-07-13 23:45;115,15
2017-07-14 00:00;112,5
2017-07-14 00:15;111,4
2017-07-14 00:30;111,4
2017-07-14 00:45;112,6
2017-07-14 01:00;107,9
2017-07-14 01:15;102,9
2017-07-14 01:30;102,15
2017-07-14 01:45;101,85
2017-07-14 02:00;102,25
2017-07-14 02:15;101,15
2017-07-14 02:30;101,35
2017-07-14 02:45;102,25
2017-07-14 03:00;100,6
2017-07-14 03:15;100,2
2017-07-14 03:30;100
2017-07-14 03:45;100,3
2017-07-14 04:00;101,15
2017-07-14 04:15;99,95
2017-07-14 04:30;100,25
2017-07-14 04:45;100,15
2017-07-14 05:00;95,95
2017-07-14 05:15;97
2017-07-14 05:30;96,8
2017-07-14 05:45;97,6
2017-07-14 06:00;96
2017-07-14 06:15;91,65
2017-07-14 06:30;91,4
2017-07-14 06:45;92,3
2017-07-14 07:00;95,2
2017-07-14 07:15;100,2
2017-07-14 07:30;151,85
2017-07-14 07:45;139,85
2017-07-14 08:00;127,55
2017-07-14 08:15;140,05
2017-07-14 08:30;153,75
2017-07-14 08:45;163,4
2017-07-14 09:00;179,6
2017-07-14 09:15;197,1
2017-07-14 09:30;211,8
2017-07-14 09:45;223,5
2017-07-14 10:00;223,2
2017-07-14 10:15;224
2017-07-14 10:30;233,45
2017-07-14 10:45;240,15
2017-07-14 11:00;246,5
2017-07-14 11:15;254,35
2017-07-14 11:30;266,15
2017-07-14 11:45;262,8
2017-07-14 12:00;277,55
2017-07-14 12:15;272,45
2017-07-14 12:30;269,25
2017-07-14 12:45;272,35
2017-07-14 13:00;279,45
2017-07-14 13:15;315,6
2017-07-14 13:30;299,1
2017-07-14 13:45;272,55
2017-07-14 14:00;273,85
2017-07-14 14:15;252,1
2017-07-14 14:30;250,15
2017-07-14 14:45;243
2017-07-14 15:00;229,75
2017-07-14 15:15;228
2017-07-14 15:30;219,4
2017-07-14 15:45;206,4
2017-07-14 16:00;197,05
2017-07-14 16:15;198,8
2017-07-14 16:30;259,55
2017-07-14 16:45;241,2
2017-07-14 17:00;208,9
2017-07-14 17:15;177,35
2017-07-14 17:30;184,05
2017-07-14 17:45;144,4
2017-07-14 18:00;157,7
2017-07-14 18:15;148,35
2017-07-14 18:30;146,8
2017-07-14 18:45;146,3
2017-07-14 19:00;142,15
2017-07-14 19:15;136,75
2017-07-14 19:30;134,5
2017-07-14 19:45;134,15
2017-07-14 20:00;131,15
2017-07-14 20:15;131,55
2017-07-14 20:30;129,9
2017-07-14 20:45;135,2
2017-07-14 21:00;131,6
2017-07-14 21:15;129,8
2017-07-14 21:30;131,6
2017-07-14 21:45;128,7
2017-07-14 22:00;123
2017-07-14 22:15;122,55
2017-07-14 22:30;121,35
2017-07-14 22:45;119,3
2017-07-14 23:00;117,5
2017-07-14 23:15;116,1
2017-07-14 23:30;115,5
2017-07-14 23:45;112,5
2017-07-15 00:00;111
2017-07-15 00:15;109,85
2017-07-15 00:30;111,75
2017-07-15 00:45;109,7
2017-07-15 01:00;109,85
2017-07-15 01:15;103,8
2017-07-15 01:30;97,3
2017-07-15 01:45;97,6
2017-07-15 02:00;97,3
2017-07-15 02:15;97,25
2017-07-15 02:30;97,55
2017-07-15 02:45;99,05
2017-07-15 03:00;100,65
2017-07-15 03:15;101,45
2017-07-15 03:30;101,6
2017-07-15 03:45;101,2
2017-07-15 04:00;101,5
2017-07-15 04:15;101,55
2017-07-15 04:30;100,2
2017-07-15 04:45;97,85
2017-07-15 05:00;96,3
2017-07-15 05:15;95,7
2017-07-15 05:30;95,65
2017-07-15 05:45;95,4
2017-07-15 06:00;94,4
2017-07-15 06:15;93,4
2017-07-15 06:30;91,25
2017-07-15 06:45;89,85
2017-07-15 07:00;88,5
2017-07-15 07:15;87,95
2017-07-15 07:30;89,95
2017-07-15 07:45;92,2
2017-07-15 08:00;94,5
2017-07-15 08:15;93,3
2017-07-15 08:30;94,9
2017-07-15 08:45;98,1
2017-07-15 09:00;108,65
2017-07-15 09:15;109,75
2017-07-15 09:30;112,55
2017-07-15 09:45;114,5
2017-07-15 10:00;101,85
2017-07-15 10:15;98,85
2017-07-15 10:30;96,55
2017-07-15 10:45;96,3
2017-07-15 11:00;96,45
2017-07-15 11:15;100,95
2017-07-15 11:30;102,75
2017-07-15 11:45;101,9
2017-07-15 12:00;103,1
2017-07-15 12:15;100,7
2017-07-15 12:30;102,35
2017-07-15 12:45;98,2
2017-07-15 13:00;100,15
2017-07-15 13:15;100
2017-07-15 13:30;101,55
2017-07-15 13:45;102,85
2017-07-15 14:00;104,9
2017-07-15 14:15;104,25
2017-07-15 14:30;104,6
2017-07-15 14:45;104,2
2017-07-15 15:00;101,2
2017-07-15 15:15;104,3
2017-07-15 15:30;103,45
2017-07-15 15:45;102,8
2017-07-15 16:00;100,95
2017-07-15 16:15;102,25
2017-07-15 16:30;102,4
2017-07-15 16:45;101,75
2017-07-15 17:00;101,55
2017-07-15 17:15;101,65
2017-07-15 17:30;100,85
2017-07-15 17:45;99
2017-07-15 18:00;99,2
2017-07-15 18:15;100,5
2017-07-15 18:30;101,05
2017-07-15 18:45;101,6
2017-07-15 19:00;99,55
2017-07-15 19:15;100,1
2017-07-15 19:30;100,9
2017-07-15 19:45;102,55
2017-07-15 20:00;101,1
2017-07-15 20:15;100,65
2017-07-15 20:30;100,15
2017-07-15 20:45;102,55
2017-07-15 21:00;104,3
2017-07-15 21:15;105,65
2017-07-15 21:30;104,35
2017-07-15 21:45;104
2017-07-15 22:00;103,7
2017-07-15 22:15;104,4
2017-07-15 22:30;105,35
2017-07-15 22:45;104,85
2017-07-15 23:00;103,3
2017-07-15 23:15;99,8
2017-07-15 23:30;95,2
2017-07-15 23:45;95,8
2017-07-16 00:00;94,95
2017-07-16 00:15;93,7
2017-07-16 00:30;93,6
2017-07-16 00:45;95,15
2017-07-16 01:00;94
2017-07-16 01:15;92,35
2017-07-16 01:30;90,35
2017-07-16 01:45;91,55
2017-07-16 02:00;90,65
2017-07-16 02:15;90,3
2017-07-16 02:30;91,1
2017-07-16 02:45;91,1
2017-07-16 03:00;94,05
2017-07-16 03:15;95,35
2017-07-16 03:30;93,1
2017-07-16 03:45;94,7
2017-07-16 04:00;93,8
2017-07-16 04:15;94,85
2017-07-16 04:30;94,75
2017-07-16 04:45;94,3
2017-07-16 05:00;88,9
2017-07-16 05:15;91,15
2017-07-16 05:30;90,65
2017-07-16 05:45;90,2
2017-07-16 06:00;91,45
2017-07-16 06:15;88,1
2017-07-16 06:30;85,55
2017-07-16 06:45;81,2
2017-07-16 07:00;83,1
2017-07-16 07:15;84,55
2017-07-16 07:30;86,55
2017-07-16 07:45;86,75
2017-07-16 08:00;84,75
2017-07-16 08:15;86
2017-07-16 08:30;86,1
2017-07-16 08:45;87,2
2017-07-16 09:00;91,95
2017-07-16 09:15;95,4
2017-07-16 09:30;95,6
2017-07-16 09:45;100,05
2017-07-16 10:00;88,7
2017-07-16 10:15;89,8
2017-07-16 10:30;92,35
2017-07-16 10:45;89,7
2017-07-16 11:00;90,7
2017-07-16 11:15;90,25
2017-07-16 11:30;91,2
2017-07-16 11:45;96,9
2017-07-16 12:00;92,05
2017-07-16 12:15;92,85
2017-07-16 12:30;90,4
2017-07-16 12:45;90,8
2017-07-16 13:00;92
2017-07-16 13:15;94,9
2017-07-16 13:30;93,8
2017-07-16 13:45;93,7
2017-07-16 14:00;97,7
2017-07-16 14:15;99,4
2017-07-16 14:30;100,25
2017-07-16 14:45;96,45
2017-07-16 15:00;96,5
2017-07-16 15:15;97,35
2017-07-16 15:30;96,85
2017-07-16 15:45;96,35
2017-07-16 16:00;95,95
2017-07-16 16:15;94,7
2017-07-16 16:30;94,65
2017-07-16 16:45;97,15
2017-07-16 17:00;97,6
2017-07-16 17:15;97,5
2017-07-16 17:30;97,4
2017-07-16 17:45;97,95
2017-07-16 18:00;95,85
2017-07-16 18:15;91,9
2017-07-16 18:30;91,2
2017-07-16 18:45;90,8
2017-07-16 19:00;90,25
2017-07-16 19:15;93,75
2017-07-16 19:30;93,1
2017-07-16 19:45;93,75
2017-07-16 20:00;94,1
2017-07-16 20:15;95,55
2017-07-16 20:30;97,35
2017-07-16 20:45;99,35
2017-07-16 21:00;103,65
2017-07-16 21:15;103,3
2017-07-16 21:30;104,7
2017-07-16 21:45;104,95
2017-07-16 22:00;106,9
2017-07-16 22:15;107,25
2017-07-16 22:30;106,6
2017-07-16 22:45;103,6
2017-07-16 23:00;104
2017-07-16 23:15;100,85
2017-07-16 23:30;100,1
2017-07-16 23:45;101,05

